Time,TemperatureF,DewpointF,PressureIn,WindDirection,WindDirectionDegrees,WindSpeedMPH,WindSpeedGustMPH,Humidity,HourlyPrecipIn,Conditions,Clouds,dailyrainin,SoftwareType,DateUTC
2013-06-06 00:02:00,47.0,47.0,30.11,NNE,19,6.0,10.0,100,0.00,,,0.00,,2013-06-06 07:02:00,
2013-06-06 00:11:00,47.0,47.0,30.11,NNE,19,6.0,10.0,100,0.00,,,0.00,,2013-06-06 07:11:00,
2013-06-06 00:22:00,47.0,47.0,30.11,NE,40,0.0,10.0,100,0.00,,,0.00,,2013-06-06 07:22:00,
2013-06-06 00:31:00,48.0,48.0,30.11,North,0,0.0,11.0,100,0.00,,,0.00,,2013-06-06 07:31:00,
2013-06-06 00:42:00,48.0,48.0,30.11,North,0,0.0,11.0,100,0.00,,,0.00,,2013-06-06 07:42:00,
2013-06-06 00:52:00,48.0,48.0,30.11,NE,54,0.0,12.0,100,0.00,,,0.00,,2013-06-06 07:52:00,
2013-06-06 01:02:00,47.0,47.0,30.10,North,0,0.0,7.0,100,0.00,,,0.00,,2013-06-06 08:02:00,
2013-06-06 01:11:00,47.0,47.0,30.10,North,0,0.0,7.0,100,0.00,,,0.00,,2013-06-06 08:11:00,
2013-06-06 01:22:00,47.0,47.0,30.10,NNE,18,1.0,6.0,100,0.00,,,0.00,,2013-06-06 08:22:00,
2013-06-06 01:32:00,46.0,46.0,30.10,North,357,0.0,8.0,100,0.00,,,0.00,,2013-06-06 08:32:00,
2013-06-06 01:42:00,46.0,46.0,30.10,NNE,30,0.0,8.0,100,0.00,,,0.00,,2013-06-06 08:42:00,
2013-06-06 01:52:00,46.0,46.0,30.10,NNE,30,0.0,8.0,100,0.00,,,0.00,,2013-06-06 08:52:00,
2013-06-06 02:01:00,47.0,47.0,30.10,North,0,0.0,0.0,100,0.00,,,0.00,,2013-06-06 09:01:00,
2013-06-06 02:11:00,47.0,47.0,30.10,North,0,0.0,0.0,100,0.00,,,0.00,,2013-06-06 09:11:00,
2013-06-06 02:22:00,47.0,47.0,30.10,North,0,0.0,0.0,100,0.00,,,0.00,,2013-06-06 09:22:00,
2013-06-06 02:32:00,47.0,47.0,30.10,North,0,0.0,0.0,100,0.00,,,0.00,,2013-06-06 09:32:00,
2013-06-06 02:42:00,47.0,47.0,30.10,North,0,0.0,0.0,100,0.00,,,0.00,,2013-06-06 09:42:00,
2013-06-06 02:53:00,47.0,47.0,30.10,North,0,0.0,0.0,100,0.00,,,0.00,,2013-06-06 09:53:00,
2013-06-06 03:02:00,47.0,47.0,30.11,North,0,0.0,0.0,100,0.00,,,0.00,,2013-06-06 10:02:00,
2013-06-06 03:12:00,47.0,47.0,30.11,NNW,337,1.0,8.0,100,0.00,,,0.00,,2013-06-06 10:12:00,
2013-06-06 03:22:00,47.0,47.0,30.11,NNW,337,1.0,8.0,100,0.00,,,0.00,,2013-06-06 10:22:00,
2013-06-06 03:32:00,47.0,47.0,30.11,ENE,61,0.0,9.0,100,0.00,,,0.00,,2013-06-06 10:32:00,
2013-06-06 03:41:00,47.0,47.0,30.11,North,0,5.0,9.0,100,0.00,,,0.00,,2013-06-06 10:41:00,
2013-06-06 03:52:00,47.0,47.0,30.11,North,0,5.0,9.0,100,0.00,,,0.00,,2013-06-06 10:52:00,
2013-06-06 04:02:00,48.0,48.0,30.11,NE,37,3.0,16.0,100,0.00,,,0.00,,2013-06-06 11:02:00,
2013-06-06 04:11:00,48.0,48.0,30.11,NE,37,3.0,16.0,100,0.00,,,0.00,,2013-06-06 11:11:00,
2013-06-06 04:22:00,48.0,48.0,30.11,NE,43,3.0,11.0,100,0.00,,,0.00,,2013-06-06 11:22:00,
2013-06-06 04:32:00,48.0,48.0,30.11,NNW,338,2.0,12.0,100,0.00,,,0.00,,2013-06-06 11:32:00,
2013-06-06 04:42:00,48.0,48.0,30.11,NNW,338,2.0,12.0,100,0.00,,,0.00,,2013-06-06 11:42:00,
2013-06-06 04:52:00,47.0,47.0,30.10,North,0,0.0,0.0,100,0.00,,,0.00,,2013-06-06 11:52:00,
2013-06-06 05:02:00,48.0,48.0,30.10,North,0,0.0,0.0,100,0.00,,,0.00,,2013-06-06 12:02:00,
2013-06-06 05:12:00,48.0,48.0,30.10,North,0,0.0,0.0,100,0.00,,,0.00,,2013-06-06 12:12:00,
2013-06-06 05:22:00,48.0,48.0,30.09,North,0,0.0,0.0,100,0.00,,,0.00,,2013-06-06 12:22:00,
2013-06-06 05:32:00,48.0,48.0,30.10,North,0,0.0,0.0,100,0.00,,,0.00,,2013-06-06 12:32:00,
2013-06-06 05:42:00,48.0,48.0,30.11,North,0,0.0,0.0,100,0.00,,,0.00,,2013-06-06 12:42:00,
2013-06-06 05:52:00,48.0,48.0,30.11,North,0,0.0,0.0,100,0.00,,,0.00,,2013-06-06 12:52:00,
2013-06-06 06:02:00,47.0,47.0,30.11,North,0,0.0,7.0,100,0.00,,,0.00,,2013-06-06 13:02:00,
2013-06-06 06:11:00,47.0,47.0,30.11,NNE,28,4.0,9.0,100,0.00,,,0.00,,2013-06-06 13:11:00,
2013-06-06 06:22:00,47.0,47.0,30.11,NNE,28,4.0,9.0,100,0.00,,,0.00,,2013-06-06 13:22:00,
2013-06-06 06:32:00,47.0,47.0,30.12,North,5,0.0,7.0,100,0.00,,,0.00,,2013-06-06 13:32:00,
2013-06-06 06:42:00,47.0,47.0,30.12,North,0,0.0,0.0,100,0.00,,,0.00,,2013-06-06 13:42:00,
2013-06-06 06:52:00,47.0,47.0,30.12,North,0,0.0,0.0,100,0.00,,,0.00,,2013-06-06 13:52:00,
2013-06-06 07:02:00,47.0,47.0,30.12,NNE,30,0.0,6.0,100,0.00,,,0.00,,2013-06-06 14:02:00,
2013-06-06 07:11:00,47.0,47.0,30.12,NNE,19,6.0,12.0,100,0.00,,,0.00,,2013-06-06 14:11:00,
2013-06-06 07:22:00,47.0,47.0,30.12,NNE,19,6.0,12.0,100,0.00,,,0.00,,2013-06-06 14:22:00,
2013-06-06 07:42:00,47.0,47.0,30.12,North,0,0.0,4.0,100,0.00,,,0.00,,2013-06-06 14:42:00,
2013-06-06 07:52:00,48.0,48.0,30.13,North,0,0.0,10.0,100,0.00,,,0.00,,2013-06-06 14:52:00,
2013-06-06 08:02:00,48.0,48.0,30.13,NNE,22,0.0,9.0,100,0.00,,,0.00,,2013-06-06 15:02:00,
2013-06-06 08:12:00,48.0,48.0,30.13,NNE,22,0.0,9.0,100,0.00,,,0.00,,2013-06-06 15:12:00,
2013-06-06 08:22:00,48.0,48.0,30.13,North,0,0.0,10.0,100,0.00,,,0.00,,2013-06-06 15:22:00,
2013-06-06 08:32:00,48.0,48.0,30.14,North,0,0.0,7.0,100,0.00,,,0.00,,2013-06-06 15:32:00,
2013-06-06 08:43:00,48.0,48.0,30.14,North,0,0.0,7.0,100,0.00,,,0.00,,2013-06-06 15:43:00,
2013-06-06 08:52:00,48.0,48.0,30.14,North,354,3.0,8.0,100,0.00,,,0.00,,2013-06-06 15:52:00,
2013-06-06 09:02:00,48.0,48.0,30.14,NNE,21,7.0,11.0,100,0.00,,,0.00,,2013-06-06 16:02:00,
2013-06-06 09:12:00,48.0,48.0,30.14,NNE,21,7.0,11.0,100,0.00,,,0.00,,2013-06-06 16:12:00,
2013-06-06 09:22:00,48.0,48.0,30.14,North,355,6.0,12.0,100,0.00,,,0.00,,2013-06-06 16:22:00,
2013-06-06 09:33:00,48.0,48.0,30.14,NW,324,0.0,13.0,100,0.00,,,0.00,,2013-06-06 16:33:00,
2013-06-06 09:42:00,48.0,48.0,30.14,NW,324,0.0,13.0,100,0.00,,,0.00,,2013-06-06 16:42:00,
2013-06-06 09:52:00,49.0,49.0,30.13,NNW,336,6.0,12.0,100,0.00,,,0.00,,2013-06-06 16:52:00,
2013-06-06 10:03:00,49.0,49.0,30.13,NW,305,5.0,12.0,100,0.00,,,0.00,,2013-06-06 17:03:00,
2013-06-06 10:12:00,49.0,49.0,30.12,NNW,347,5.0,14.0,100,0.00,,,0.00,,2013-06-06 17:12:00,
2013-06-06 10:22:00,49.0,49.0,30.12,NNW,347,5.0,14.0,100,0.00,,,0.00,,2013-06-06 17:22:00,
2013-06-06 10:32:00,50.0,50.0,30.12,North,9,6.0,12.0,100,0.00,,,0.00,,2013-06-06 17:32:00,
2013-06-06 10:43:00,50.0,50.0,30.12,North,9,6.0,12.0,100,0.00,,,0.00,,2013-06-06 17:43:00,
2013-06-06 10:53:00,50.0,50.0,30.13,NE,36,4.0,13.0,100,0.00,,,0.00,,2013-06-06 17:53:00,
2013-06-06 11:02:00,50.0,50.0,30.12,North,357,0.0,15.0,100,0.00,,,0.00,,2013-06-06 18:02:00,
2013-06-06 11:12:00,50.0,50.0,30.12,North,357,0.0,15.0,100,0.00,,,0.00,,2013-06-06 18:12:00,
2013-06-06 11:22:00,50.0,50.0,30.13,NNE,26,0.0,12.0,99,0.00,,,0.00,,2013-06-06 18:22:00,
2013-06-06 11:33:00,50.0,50.0,30.14,NNE,15,5.0,16.0,99,0.00,,,0.00,,2013-06-06 18:33:00,
2013-06-06 11:42:00,50.0,50.0,30.14,NNE,15,5.0,16.0,99,0.00,,,0.00,,2013-06-06 18:42:00,
2013-06-06 11:53:00,50.0,50.0,30.14,NNE,26,7.0,16.0,99,0.00,,,0.00,,2013-06-06 18:53:00,
2013-06-06 12:02:00,51.0,51.0,30.14,NE,36,6.0,16.0,99,0.00,,,0.00,,2013-06-06 19:02:00,
2013-06-06 12:23:00,50.0,50.0,30.14,NNE,28,3.0,16.0,99,0.00,,,0.00,,2013-06-06 19:23:00,
2013-06-06 12:33:00,51.0,50.0,30.14,North,357,10.0,18.0,98,0.00,,,0.00,,2013-06-06 19:33:00,
2013-06-06 12:42:00,51.0,50.0,30.14,North,357,10.0,18.0,98,0.00,,,0.00,,2013-06-06 19:42:00,
2013-06-06 12:52:00,51.0,50.0,30.14,NW,310,7.0,15.0,98,0.00,,,0.00,,2013-06-06 19:52:00,
2013-06-06 13:02:00,52.0,51.0,30.14,NNE,25,5.0,12.0,97,0.00,,,0.00,,2013-06-06 20:02:00,
2013-06-06 13:11:00,52.0,51.0,30.14,NNE,25,5.0,12.0,97,0.00,,,0.00,,2013-06-06 20:11:00,
2013-06-06 13:22:00,52.0,51.0,30.13,NNE,32,5.0,20.0,97,0.00,,,0.00,,2013-06-06 20:22:00,
2013-06-06 13:32:00,52.0,51.0,30.13,North,357,5.0,16.0,96,0.00,,,0.00,,2013-06-06 20:32:00,
2013-06-06 13:42:00,52.0,51.0,30.13,North,357,5.0,16.0,96,0.00,,,0.00,,2013-06-06 20:42:00,
2013-06-06 13:53:00,52.0,51.0,30.13,NE,44,4.0,19.0,97,0.00,,,0.00,,2013-06-06 20:53:00,
2013-06-06 14:02:00,52.0,51.0,30.13,NE,43,7.0,14.0,96,0.00,,,0.00,,2013-06-06 21:02:00,
2013-06-06 14:11:00,52.0,51.0,30.13,NE,43,7.0,14.0,96,0.00,,,0.00,,2013-06-06 21:11:00,
2013-06-06 14:22:00,52.0,51.0,30.14,NNE,21,4.0,8.0,97,0.00,,,0.00,,2013-06-06 21:22:00,
2013-06-06 14:32:00,51.0,50.0,30.14,NE,40,4.0,15.0,98,0.00,,,0.00,,2013-06-06 21:32:00,
2013-06-06 14:43:00,51.0,50.0,30.14,NE,40,4.0,15.0,98,0.00,,,0.00,,2013-06-06 21:43:00,
2013-06-06 14:53:00,52.0,51.0,30.14,North,7,4.0,14.0,97,0.00,,,0.00,,2013-06-06 21:53:00,
2013-06-06 15:02:00,52.0,51.0,30.14,North,352,6.0,18.0,97,0.00,,,0.00,,2013-06-06 22:02:00,
2013-06-06 15:12:00,52.0,51.0,30.14,North,352,6.0,18.0,97,0.00,,,0.00,,2013-06-06 22:12:00,
2013-06-06 15:22:00,52.0,51.0,30.14,North,357,6.0,18.0,98,0.00,,,0.00,,2013-06-06 22:22:00,
2013-06-06 15:33:00,51.0,50.0,30.15,North,0,0.0,0.0,98,0.00,,,0.00,,2013-06-06 22:33:00,
2013-06-06 15:43:00,51.0,50.0,30.15,North,0,0.0,0.0,98,0.00,,,0.00,,2013-06-06 22:43:00,
2013-06-06 15:52:00,51.0,50.0,30.14,North,0,0.0,0.0,97,0.00,,,0.00,,2013-06-06 22:52:00,
2013-06-06 16:02:00,51.0,50.0,30.14,North,357,7.0,15.0,98,0.00,,,0.00,,2013-06-06 23:02:00,
2013-06-06 16:12:00,51.0,50.0,30.14,North,357,7.0,15.0,98,0.00,,,0.00,,2013-06-06 23:12:00,
2013-06-06 16:22:00,51.0,50.0,30.15,North,357,0.0,15.0,98,0.00,,,0.00,,2013-06-06 23:22:00,
2013-06-06 16:33:00,51.0,51.0,30.14,North,0,0.0,9.0,99,0.00,,,0.00,,2013-06-06 23:33:00,
2013-06-06 16:42:00,51.0,51.0,30.14,North,0,0.0,9.0,99,0.00,,,0.00,,2013-06-06 23:42:00,
2013-06-06 16:52:00,51.0,51.0,30.14,NNE,32,8.0,13.0,99,0.00,,,0.00,,2013-06-06 23:52:00,
2013-06-06 17:02:00,51.0,51.0,30.14,NE,46,4.0,18.0,99,0.00,,,0.00,,2013-06-07 00:02:00,
2013-06-06 17:11:00,51.0,51.0,30.14,NE,46,4.0,18.0,99,0.00,,,0.00,,2013-06-07 00:11:00,
2013-06-06 17:32:00,51.0,50.0,30.14,North,357,4.0,14.0,98,0.00,,,0.00,,2013-06-07 00:32:00,
2013-06-06 17:42:00,51.0,50.0,30.14,North,357,4.0,14.0,98,0.00,,,0.00,,2013-06-07 00:42:00,
2013-06-06 17:52:00,51.0,50.0,30.14,North,0,3.0,19.0,98,0.00,,,0.00,,2013-06-07 00:52:00,
2013-06-06 18:02:00,51.0,51.0,30.14,North,0,0.0,13.0,99,0.00,,,0.00,,2013-06-07 01:02:00,
2013-06-06 18:11:00,51.0,51.0,30.14,North,0,0.0,13.0,99,0.00,,,0.00,,2013-06-07 01:11:00,
2013-06-06 18:22:00,51.0,51.0,30.14,North,0,0.0,17.0,99,0.00,,,0.00,,2013-06-07 01:22:00,
2013-06-06 18:32:00,51.0,51.0,30.14,North,355,0.0,12.0,99,0.00,,,0.00,,2013-06-07 01:32:00,
2013-06-06 18:42:00,51.0,51.0,30.14,North,355,0.0,12.0,99,0.00,,,0.00,,2013-06-07 01:42:00,
2013-06-06 18:52:00,51.0,51.0,30.14,NE,39,5.0,14.0,99,0.00,,,0.00,,2013-06-07 01:52:00,
2013-06-06 19:02:00,51.0,51.0,30.13,NE,40,6.0,17.0,99,0.00,,,0.00,,2013-06-07 02:02:00,
2013-06-06 19:11:00,51.0,51.0,30.13,NE,40,6.0,17.0,99,0.00,,,0.00,,2013-06-07 02:11:00,
2013-06-06 19:22:00,51.0,51.0,30.13,North,357,0.0,5.0,99,0.00,,,0.00,,2013-06-07 02:22:00,
2013-06-06 19:32:00,51.0,51.0,30.13,NNE,15,3.0,13.0,99,0.00,,,0.00,,2013-06-07 02:32:00,
2013-06-06 19:42:00,51.0,51.0,30.13,NNE,15,3.0,13.0,99,0.00,,,0.00,,2013-06-07 02:42:00,
2013-06-06 19:52:00,51.0,51.0,30.13,NNE,29,5.0,15.0,99,0.00,,,0.00,,2013-06-07 02:52:00,
2013-06-06 20:01:00,51.0,51.0,30.12,North,0,7.0,15.0,99,0.00,,,0.00,,2013-06-07 03:01:00,
2013-06-06 20:11:00,50.0,50.0,30.13,NNE,25,6.0,13.0,100,0.00,,,0.00,,2013-06-07 03:11:00,
2013-06-06 20:22:00,50.0,50.0,30.13,NNE,25,6.0,13.0,100,0.00,,,0.00,,2013-06-07 03:22:00,
2013-06-06 20:32:00,50.0,50.0,30.13,NNE,15,7.0,10.0,100,0.00,,,0.00,,2013-06-07 03:32:00,
2013-06-06 20:43:00,50.0,50.0,30.13,NNE,15,7.0,10.0,100,0.00,,,0.00,,2013-06-07 03:43:00,
2013-06-06 20:53:00,50.0,50.0,30.13,NNE,21,1.0,12.0,100,0.00,,,0.00,,2013-06-07 03:53:00,
2013-06-06 21:02:00,50.0,50.0,30.14,NNE,33,3.0,12.0,100,0.00,,,0.00,,2013-06-07 04:02:00,
2013-06-06 21:12:00,50.0,50.0,30.13,ENE,63,2.0,7.0,100,0.00,,,0.00,,2013-06-07 04:12:00,
2013-06-06 21:22:00,50.0,50.0,30.13,ENE,63,2.0,7.0,100,0.00,,,0.00,,2013-06-07 04:22:00,
2013-06-06 21:33:00,50.0,50.0,30.14,NNE,21,0.0,13.0,100,0.00,,,0.00,,2013-06-07 04:33:00,
2013-06-06 21:42:00,50.0,50.0,30.14,NNE,21,0.0,13.0,100,0.00,,,0.00,,2013-06-07 04:42:00,
2013-06-06 21:53:00,50.0,50.0,30.14,ENE,64,0.0,8.0,100,0.00,,,0.00,,2013-06-07 04:53:00,
2013-06-06 22:02:00,50.0,50.0,30.13,North,0,3.0,9.0,100,0.00,,,0.00,,2013-06-07 05:02:00,
2013-06-06 22:11:00,50.0,50.0,30.13,North,0,3.0,9.0,100,0.00,,,0.00,,2013-06-07 05:11:00,
2013-06-06 22:22:00,49.0,49.0,30.13,North,0,0.0,9.0,100,0.00,,,0.00,,2013-06-07 05:22:00,
2013-06-06 22:31:00,49.0,49.0,30.14,North,0,0.0,4.0,100,0.00,,,0.00,,2013-06-07 05:31:00,
2013-06-06 22:42:00,49.0,49.0,30.14,North,0,0.0,4.0,100,0.00,,,0.00,,2013-06-07 05:42:00,
2013-06-06 22:52:00,48.0,48.0,30.14,North,0,0.0,0.0,100,0.00,,,0.00,,2013-06-07 05:52:00,
2013-06-06 23:01:00,47.0,47.0,30.12,North,0,0.0,0.0,100,0.00,,,0.00,,2013-06-07 06:01:00,
2013-06-06 23:12:00,47.0,47.0,30.12,North,0,0.0,0.0,100,0.00,,,0.00,,2013-06-07 06:12:00,
2013-06-06 23:21:00,47.0,47.0,30.14,North,357,0.0,4.0,100,0.00,,,0.00,,2013-06-07 06:21:00,
2013-06-06 23:31:00,47.0,47.0,30.14,North,0,0.0,6.0,100,0.00,,,0.00,,2013-06-07 06:31:00,
2013-06-06 23:41:00,47.0,47.0,30.14,North,0,0.0,6.0,100,0.00,,,0.00,,2013-06-07 06:41:00,
2013-06-06 23:52:00,46.0,46.0,30.14,NNE,19,0.0,4.0,100,0.00,,,0.00,,2013-06-07 06:52:00,